| time (UTC) | temp F | wind direction | speed MPH | gust MPH | rain 1hr in | rain 24hr in | rain mn in | humidity % | barometer mb |
| 20260903213411 | 58 | 184 | 0.0 | 0.0 | 0.00 | 0.00 | 0.00 | 100 | 1008.5 |
| 20260903212411 | 58 | 184 | 0.0 | 0.0 | 0.00 | 0.00 | 0.00 | 100 | 1008.5 |
| 20260903211912 | 58 | 185 | 0.0 | 0.0 | 0.00 | 0.00 | 0.00 | 100 | 1008.5 |
| 20260903210909 | 58 | 190 | 0.0 | 0.0 | 0.00 | 0.00 | 0.00 | 100 | 1008.4 |
| 20260903205902 | 57 | 190 | 0.0 | 0.0 | 0.00 | 0.00 | 0.00 | 100 | 1008.5 |
| 20260903205401 | 56 | 190 | 0.0 | 0.0 | 0.00 | 0.00 | 0.00 | 100 | 1008.5 |
| 20260903204901 | 57 | 191 | 0.0 | 0.0 | 0.00 | 0.00 | 0.00 | 100 | 1008.5 |
| 20260903204402 | 57 | 185 | 0.0 | 0.0 | 0.00 | 0.00 | 0.00 | 100 | 1008.4 |
| 20260903203904 | 57 | 186 | 0.0 | 0.0 | 0.00 | 0.00 | 0.00 | 100 | 1008.5 |
| 20260903202901 | 59 | 196 | 1.0 | 12.0 | 0.00 | 0.00 | 0.00 | 100 | 1008.4 |
| 20260903202354 | 59 | 175 | 0.0 | 0.0 | 0.00 | 0.00 | 0.00 | 100 | 1008.3 |
| 20260903200852 | 60 | 185 | 4.0 | 10.0 | 0.00 | 0.00 | 0.00 | 100 | 1008.2 |
| 20260903200353 | 60 | 205 | 5.0 | 14.0 | 0.00 | 0.00 | 0.00 | 100 | 1008.2 |
| 20260903195348 | 62 | 234 | 5.0 | 12.0 | 0.00 | 0.00 | 0.00 | 100 | 1008.2 |
| 20260903194849 | 63 | 192 | 5.0 | 13.0 | 0.00 | 0.00 | 0.00 | 100 | 1008.0 |
| 20260903192848 | 62 | 153 | 3.0 | 10.0 | 0.00 | 0.00 | 0.00 | 100 | 1008.0 |
| 20260903191848 | 62 | 176 | 2.0 | 10.0 | 0.00 | 0.00 | 0.00 | 100 | 1008.1 |
| 20260903191349 | 62 | 171 | 2.0 | 9.0 | 0.00 | 0.00 | 0.00 | 100 | 1008.1 |
| 20260903190344 | 61 | 119 | 1.0 | 9.0 | 0.00 | 0.00 | 0.00 | 100 | 1008.2 |
| 20260903185844 | 61 | 186 | 2.0 | 11.0 | 0.00 | 0.00 | 0.00 | 100 | 1008.3 |
| 20260903185345 | 60 | 219 | 3.0 | 11.0 | 0.00 | 0.00 | 0.00 | 100 | 1008.3 |
| 20260903184845 | 60 | 193 | 2.0 | 11.0 | 0.00 | 0.00 | 0.00 | 100 | 1008.3 |
| 20260903184345 | 60 | 188 | 2.0 | 8.0 | 0.00 | 0.00 | 0.00 | 100 | 1008.4 |
| 20260903183840 | 60 | 196 | 2.0 | 9.0 | 0.00 | 0.00 | 0.00 | 100 | 1008.4 |
| 20260903183341 | 60 | 163 | 2.0 | 9.0 | 0.00 | 0.00 | 0.00 | 100 | 1008.4 |
| 20260903182840 | 60 | 183 | 3.0 | 12.0 | 0.00 | 0.00 | 0.00 | 100 | 1008.4 |
| 20260903182342 | 60 | 177 | 3.0 | 12.0 | 0.00 | 0.00 | 0.00 | 100 | 1008.2 |
| 20260903181339 | 60 | 174 | 2.0 | 9.0 | 0.00 | 0.00 | 0.00 | 100 | 1008.1 |
| 20260903180839 | 60 | 183 | 2.0 | 7.0 | 0.00 | 0.00 | 0.00 | 100 | 1008.1 |
| 20260903175840 | 60 | 127 | 1.0 | 9.0 | 0.00 | 0.00 | 0.00 | 100 | 1008.0 |
| 20260903175331 | 60 | 184 | 0.0 | 9.0 | 0.00 | 0.00 | 0.00 | 100 | 1008.0 |
| 20260903174329 | 59 | 138 | 0.0 | 9.0 | 0.00 | 0.00 | 0.00 | 100 | 1008.1 |
| 20260903173830 | 58 | 193 | 0.0 | 0.0 | 0.00 | 0.00 | 0.00 | 100 | 1008.1 |
| 20260903172825 | 58 | 196 | 0.0 | 0.0 | 0.00 | 0.00 | 0.00 | 100 | 1008.2 |
| 20260903172325 | 58 | 177 | 0.0 | 0.0 | 0.00 | 0.00 | 0.00 | 100 | 1008.1 |
| 20260903171327 | 58 | 135 | 0.0 | 0.0 | 0.00 | 0.00 | 0.00 | 100 | 1008.2 |
| 20260903170321 | 57 | 165 | 0.0 | 0.0 | 0.00 | 0.00 | 0.00 | 100 | 1008.2 |
| 20260903165813 | 56 | 124 | 0.0 | 0.0 | 0.00 | 0.00 | 0.00 | 100 | 1008.2 |
| 20260903165309 | 56 | 135 | 0.0 | 0.0 | 0.00 | 0.00 | 0.00 | 100 | 1008.3 |
| 20260903164809 | 56 | 178 | 0.0 | 0.0 | 0.00 | 0.00 | 0.00 | 100 | 1008.4 |
| 20260903164304 | 56 | 182 | 0.0 | 0.0 | 0.00 | 0.00 | 0.00 | 100 | 1008.4 |
| 20260903163302 | 55 | 182 | 0.0 | 0.0 | 0.00 | 0.00 | 0.00 | 100 | 1008.6 |
| 20260903162802 | 55 | 182 | 0.0 | 0.0 | 0.00 | 0.00 | 0.00 | 100 | 1008.6 |
| 20260903162301 | 55 | 182 | 0.0 | 0.0 | 0.00 | 0.00 | 0.00 | 100 | 1008.7 |
| 20260903161804 | 56 | 182 | 0.0 | 0.0 | 0.00 | 0.00 | 0.00 | 100 | 1008.7 |
| 20260903161303 | 56 | 159 | 0.0 | 0.0 | 0.00 | 0.00 | 0.00 | 100 | 1008.6 |
| 20260903160803 | 55 | 194 | 0.0 | 0.0 | 0.00 | 0.00 | 0.00 | 100 | 1008.5 |
| 20260903160304 | 55 | 195 | 0.0 | 0.0 | 0.00 | 0.00 | 0.00 | 100 | 1008.5 |
| 20260903155804 | 55 | 192 | 1.0 | 10.0 | 0.00 | 0.00 | 0.00 | 100 | 1008.5 |
| 20260903155306 | 55 | 192 | 2.0 | 10.0 | 0.00 | 0.00 | 0.00 | 100 | 1008.5 |
| 20260903154802 | 55 | 185 | 0.0 | 6.0 | 0.00 | 0.00 | 0.00 | 100 | 1008.5 |
| 20260903154303 | 55 | 185 | 0.0 | 6.0 | 0.00 | 0.00 | 0.00 | 100 | 1008.6 |
| 20260903153303 | 55 | 182 | 0.0 | 4.0 | 0.00 | 0.00 | 0.00 | 100 | 1008.5 |
| 20260903152802 | 55 | 182 | 1.0 | 11.0 | 0.00 | 0.00 | 0.00 | 100 | 1008.5 |
| 20260903152301 | 55 | 182 | 1.0 | 11.0 | 0.00 | 0.00 | 0.00 | 100 | 1008.5 |
| 20260903151801 | 55 | 194 | 1.0 | 9.0 | 0.00 | 0.00 | 0.00 | 100 | 1008.5 |
| 20260903151303 | 55 | 210 | 1.0 | 9.0 | 0.00 | 0.00 | 0.00 | 100 | 1008.5 |
| 20260903150804 | 55 | 191 | 0.0 | 1.0 | 0.00 | 0.00 | 0.00 | 100 | 1008.3 |
| 20260903150302 | 55 | 188 | 1.0 | 9.0 | 0.00 | 0.00 | 0.00 | 100 | 1008.3 |
| 20260903145801 | 55 | 190 | 0.0 | 9.0 | 0.00 | 0.00 | 0.00 | 100 | 1008.3 |
| 20260903145305 | 55 | 188 | 0.0 | 0.0 | 0.00 | 0.00 | 0.00 | 100 | 1008.2 |
| 20260903144802 | 55 | 186 | 0.0 | 0.0 | 0.00 | 0.00 | 0.00 | 100 | 1008.2 |
| 20260903144253 | 55 | 184 | 0.0 | 0.0 | 0.00 | 0.00 | 0.00 | 100 | 1008.2 |
| 20260903143749 | 55 | 186 | 0.0 | 0.0 | 0.00 | 0.00 | 0.00 | 100 | 1008.1 |
| 20260903143230 | 55 | 188 | 0.0 | 0.0 | 0.00 | 0.00 | 0.00 | 100 | 1008.2 |
| 20260903142730 | 55 | 188 | 0.0 | 0.0 | 0.00 | 0.00 | 0.00 | 100 | 1008.1 |
| 20260903142230 | 55 | 180 | 1.0 | 6.0 | 0.00 | 0.00 | 0.00 | 100 | 1008.0 |
| 20260903141730 | 55 | 184 | 1.0 | 6.0 | 0.00 | 0.00 | 0.00 | 100 | 1007.9 |
| 20260903141229 | 55 | 175 | 0.0 | 0.0 | 0.00 | 0.00 | 0.00 | 100 | 1007.9 |
| 20260903140729 | 55 | 198 | 0.0 | 0.0 | 0.00 | 0.00 | 0.00 | 100 | 1007.9 |
| 20260903140230 | 55 | 201 | 0.0 | 0.0 | 0.00 | 0.00 | 0.00 | 100 | 1007.9 |
| 20260903135730 | 55 | 201 | 0.0 | 0.0 | 0.00 | 0.00 | 0.00 | 100 | 1007.9 |
| 20260903135215 | 55 | 181 | 0.0 | 0.0 | 0.00 | 0.00 | 0.00 | 100 | 1007.8 |
| 20260903134717 | 55 | 172 | 0.0 | 0.0 | 0.00 | 0.00 | 0.00 | 100 | 1007.8 |
| 20260903133709 | 55 | 138 | 0.0 | 0.0 | 0.00 | 0.00 | 0.00 | 100 | 1007.7 |
| 20260903133204 | 55 | 134 | 0.0 | 0.0 | 0.00 | 0.00 | 0.00 | 100 | 1007.6 |
| 20260903132707 | 55 | 136 | 0.0 | 0.0 | 0.00 | 0.00 | 0.00 | 100 | 1007.6 |
| 20260903132202 | 55 | 136 | 0.0 | 0.0 | 0.00 | 0.00 | 0.00 | 100 | 1007.6 |
| 20260903131201 | 55 | 193 | 0.0 | 7.0 | 0.00 | 0.00 | 0.00 | 100 | 1007.6 |
| 20260903130702 | 55 | 181 | 0.0 | 6.0 | 0.00 | 0.00 | 0.00 | 100 | 1007.6 |
| 20260903130203 | 55 | 176 | 0.0 | 0.0 | 0.00 | 0.00 | 0.00 | 100 | 1007.5 |
| 20260903125702 | 55 | 130 | 0.0 | 0.0 | 0.00 | 0.00 | 0.00 | 100 | 1007.4 |
| 20260903125202 | 55 | 134 | 0.0 | 0.0 | 0.00 | 0.00 | 0.00 | 100 | 1007.5 |
| 20260903124703 | 55 | 133 | 0.0 | 0.0 | 0.00 | 0.00 | 0.00 | 100 | 1007.6 |
| 20260903124203 | 55 | 207 | 0.0 | 0.0 | 0.00 | 0.00 | 0.00 | 100 | 1007.6 |
| 20260903123702 | 55 | 182 | 0.0 | 0.0 | 0.00 | 0.00 | 0.00 | 100 | 1007.6 |
| 20260903122701 | 55 | 167 | 1.0 | 7.0 | 0.00 | 0.00 | 0.00 | 100 | 1007.7 |
| 20260903122200 | 55 | 192 | 1.0 | 7.0 | 0.00 | 0.00 | 0.00 | 100 | 1007.6 |
| 20260903121703 | 55 | 194 | 0.0 | 0.0 | 0.00 | 0.00 | 0.00 | 100 | 1007.5 |
| 20260903120201 | 56 | 188 | 2.0 | 9.0 | 0.00 | 0.00 | 0.00 | 100 | 1007.6 |
| 20260903114653 | 56 | 171 | 2.0 | 11.0 | 0.00 | 0.00 | 0.00 | 100 | 1007.6 |
| 20260903114153 | 56 | 171 | 1.0 | 11.0 | 0.00 | 0.00 | 0.00 | 100 | 1007.6 |
| 20260903113132 | 56 | 177 | 1.0 | 9.0 | 0.00 | 0.00 | 0.00 | 100 | 1007.7 |
| 20260903112632 | 56 | 186 | 0.0 | 0.0 | 0.00 | 0.00 | 0.00 | 100 | 1007.7 |
| 20260903112131 | 56 | 185 | 0.0 | 3.0 | 0.00 | 0.00 | 0.00 | 100 | 1007.7 |
| 20260903111629 | 56 | 192 | 1.0 | 8.0 | 0.00 | 0.00 | 0.00 | 100 | 1007.6 |
| 20260903111130 | 56 | 192 | 1.0 | 8.0 | 0.00 | 0.00 | 0.00 | 100 | 1007.6 |
| 20260903110630 | 55 | 193 | 0.0 | 5.0 | 0.00 | 0.00 | 0.00 | 100 | 1007.6 |
| 20260903110130 | 55 | 193 | 0.0 | 0.0 | 0.00 | 0.00 | 0.00 | 100 | 1007.6 |
| 20260903105629 | 56 | 193 | 0.0 | 0.0 | 0.00 | 0.00 | 0.00 | 100 | 1007.6 |
| 20260903104630 | 56 | 193 | 1.0 | 6.0 | 0.00 | 0.00 | 0.00 | 100 | 1007.6 |
| 20260903103630 | 56 | 193 | 0.0 | 6.0 | 0.00 | 0.00 | 0.00 | 100 | 1007.7 |
| 20260903103132 | 56 | 192 | 0.0 | 0.0 | 0.00 | 0.00 | 0.00 | 100 | 1007.6 |
| 20260903102632 | 56 | 192 | 0.0 | 0.0 | 0.00 | 0.00 | 0.00 | 100 | 1007.7 |
| 20260903102113 | 56 | 192 | 0.0 | 0.0 | 0.00 | 0.00 | 0.00 | 100 | 1007.6 |
| 20260903101104 | 56 | 178 | 0.0 | 0.0 | 0.00 | 0.00 | 0.00 | 100 | 1007.7 |
| 20260903100603 | 55 | 178 | 0.0 | 0.0 | 0.00 | 0.00 | 0.00 | 100 | 1007.6 |
| 20260903100104 | 56 | 175 | 0.0 | 0.0 | 0.00 | 0.00 | 0.00 | 100 | 1007.5 |
| 20260903095602 | 56 | 182 | 0.0 | 0.0 | 0.00 | 0.00 | 0.00 | 100 | 1007.4 |
| 20260903095102 | 56 | 155 | 0.0 | 0.0 | 0.00 | 0.00 | 0.00 | 100 | 1007.4 |
| 20260903094602 | 56 | 141 | 0.0 | 0.0 | 0.00 | 0.00 | 0.00 | 100 | 1007.4 |
| 20260903093602 | 56 | 184 | 0.0 | 0.0 | 0.00 | 0.00 | 0.00 | 100 | 1007.5 |
| 20260903093102 | 56 | 148 | 0.0 | 0.0 | 0.00 | 0.00 | 0.00 | 100 | 1007.6 |
| 20260903092604 | 56 | 207 | 0.0 | 0.0 | 0.00 | 0.00 | 0.00 | 100 | 1007.7 |
| 20260903092104 | 56 | 134 | 0.0 | 0.0 | 0.00 | 0.00 | 0.00 | 100 | 1007.6 |
| 20260903091602 | 56 | 139 | 0.0 | 0.0 | 0.00 | 0.00 | 0.00 | 100 | 1007.6 |
| 20260903091103 | 56 | 213 | 0.0 | 0.0 | 0.00 | 0.00 | 0.00 | 100 | 1007.7 |
| 20260903090602 | 56 | 213 | 0.0 | 0.0 | 0.00 | 0.00 | 0.00 | 100 | 1007.7 |
| 20260903085602 | 56 | 213 | 1.0 | 6.0 | 0.00 | 0.00 | 0.00 | 100 | 1007.8 |
| 20260903085102 | 56 | 188 | 0.0 | 6.0 | 0.00 | 0.00 | 0.00 | 100 | 1007.8 |
| 20260903084602 | 56 | 186 | 0.0 | 0.0 | 0.00 | 0.00 | 0.00 | 100 | 1007.8 |
| 20260903083604 | 56 | 186 | 1.0 | 7.0 | 0.00 | 0.00 | 0.00 | 100 | 1007.8 |
| 20260903083103 | 56 | 184 | 2.0 | 9.0 | 0.00 | 0.00 | 0.00 | 100 | 1007.9 |
| 20260903082102 | 56 | 185 | 0.0 | 0.0 | 0.00 | 0.00 | 0.00 | 100 | 1007.8 |
| 20260903081602 | 56 | 186 | 0.0 | 0.0 | 0.00 | 0.00 | 0.00 | 100 | 1007.8 |
| 20260903081102 | 56 | 189 | 0.0 | 0.0 | 0.00 | 0.00 | 0.00 | 100 | 1007.8 |
| 20260903080600 | 56 | 134 | 0.0 | 0.0 | 0.00 | 0.00 | 0.00 | 100 | 1007.8 |
| 20260903075604 | 56 | 200 | 0.0 | 0.0 | 0.00 | 0.00 | 0.00 | 100 | 1008.0 |
| 20260903075103 | 56 | 200 | 0.0 | 0.0 | 0.00 | 0.00 | 0.00 | 100 | 1007.9 |
| 20260903074604 | 56 | 200 | 0.0 | 0.0 | 0.00 | 0.00 | 0.00 | 100 | 1008.0 |
| 20260903074103 | 56 | 200 | 0.0 | 0.0 | 0.00 | 0.00 | 0.00 | 100 | 1008.0 |
| 20260903073603 | 56 | 182 | 0.0 | 0.0 | 0.00 | 0.00 | 0.00 | 100 | 1007.9 |
| 20260903073134 | 56 | 182 | 0.0 | 0.0 | 0.00 | 0.00 | 0.00 | 100 | 1007.9 |
| 20260903072603 | 56 | 182 | 0.0 | 5.0 | 0.00 | 0.00 | 0.00 | 100 | 1007.9 |
| 20260903072103 | 56 | 181 | 0.0 | 6.0 | 0.00 | 0.00 | 0.00 | 100 | 1007.8 |
| 20260903071602 | 56 | 180 | 0.0 | 6.0 | 0.00 | 0.00 | 0.00 | 100 | 1007.8 |
| 20260903071103 | 56 | 184 | 0.0 | 0.0 | 0.00 | 0.00 | 0.00 | 100 | 1007.8 |
| 20260903070604 | 56 | 184 | 0.0 | 3.0 | 0.00 | 0.00 | 0.00 | 100 | 1007.8 |
| 20260903070103 | 56 | 184 | 1.0 | 5.0 | 0.00 | 0.00 | 0.00 | 100 | 1007.6 |
| 20260903065603 | 56 | 184 | 2.0 | 11.0 | 0.00 | 0.00 | 0.00 | 100 | 1007.7 |
| 20260903065104 | 56 | 183 | 1.0 | 11.0 | 0.00 | 0.00 | 0.00 | 100 | 1007.7 |
| 20260903064604 | 56 | 195 | 0.0 | 0.0 | 0.00 | 0.00 | 0.00 | 100 | 1007.8 |
| 20260903064102 | 56 | 157 | 0.0 | 0.0 | 0.00 | 0.00 | 0.00 | 100 | 1007.8 |
| 20260903063104 | 56 | 182 | 0.0 | 0.0 | 0.00 | 0.00 | 0.00 | 100 | 1007.7 |
| 20260903062604 | 56 | 179 | 0.0 | 0.0 | 0.00 | 0.00 | 0.00 | 100 | 1007.7 |
| 20260903062103 | 56 | 178 | 0.0 | 0.0 | 0.00 | 0.00 | 0.00 | 100 | 1007.8 |
| 20260903061603 | 56 | 178 | 0.0 | 0.0 | 0.00 | 0.00 | 0.00 | 100 | 1007.7 |
| 20260903061103 | 56 | 186 | 0.0 | 0.0 | 0.00 | 0.00 | 0.00 | 100 | 1007.8 |
| 20260903060604 | 57 | 186 | 0.0 | 0.0 | 0.00 | 0.00 | 0.00 | 100 | 1007.9 |
| 20260903060104 | 57 | 196 | 0.0 | 0.0 | 0.00 | 0.00 | 0.00 | 100 | 1008.0 |
| 20260903055603 | 57 | 179 | 0.0 | 0.0 | 0.00 | 0.00 | 0.00 | 100 | 1007.9 |
| 20260903055103 | 56 | 161 | 0.0 | 0.0 | 0.00 | 0.00 | 0.00 | 100 | 1007.9 |
| 20260903054604 | 56 | 188 | 0.0 | 0.0 | 0.00 | 0.00 | 0.00 | 100 | 1007.9 |
| 20260903054103 | 56 | 188 | 0.0 | 0.0 | 0.00 | 0.00 | 0.00 | 100 | 1007.9 |
| 20260903053603 | 56 | 188 | 0.0 | 0.0 | 0.00 | 0.00 | 0.00 | 100 | 1007.9 |
| 20260903053104 | 57 | 188 | 0.0 | 0.0 | 0.00 | 0.00 | 0.00 | 100 | 1007.8 |
| 20260903052103 | 57 | 188 | 0.0 | 0.0 | 0.00 | 0.00 | 0.00 | 100 | 1007.9 |
| 20260903051601 | 57 | 191 | 0.0 | 0.0 | 0.00 | 0.00 | 0.00 | 100 | 1007.9 |
| 20260903050601 | 57 | 191 | 0.0 | 0.0 | 0.00 | 0.00 | 0.00 | 100 | 1007.7 |
| 20260903045604 | 56 | 192 | 0.0 | 0.0 | 0.00 | 0.00 | 0.00 | 100 | 1007.7 |
| 20260903045106 | 56 | 192 | 0.0 | 0.0 | 0.00 | 0.00 | 0.00 | 100 | 1007.8 |
| 20260903044603 | 56 | 192 | 0.0 | 0.0 | 0.00 | 0.00 | 0.00 | 100 | 1007.8 |
| 20260903044103 | 56 | 192 | 0.0 | 0.0 | 0.00 | 0.00 | 0.00 | 100 | 1007.7 |
| 20260903043603 | 56 | 192 | 0.0 | 0.0 | 0.00 | 0.00 | 0.00 | 100 | 1007.6 |
| 20260903043103 | 56 | 192 | 0.0 | 0.0 | 0.00 | 0.00 | 0.00 | 100 | 1007.5 |
| 20260903042603 | 56 | 192 | 0.0 | 0.0 | 0.00 | 0.00 | 0.00 | 100 | 1007.4 |
| 20260903042104 | 56 | 192 | 0.0 | 0.0 | 0.00 | 0.00 | 0.00 | 100 | 1007.4 |
| 20260903041549 | 56 | 192 | 0.0 | 0.0 | 0.00 | 0.00 | 0.00 | 100 | 1007.4 |
| 20260903041045 | 57 | 192 | 0.0 | 0.0 | 0.00 | 0.00 | 0.00 | 100 | 1007.3 |
| 20260903040030 | 57 | 192 | 0.0 | 0.0 | 0.00 | 0.00 | 0.00 | 100 | 1007.3 |
| 20260903035530 | 57 | 192 | 0.0 | 0.0 | 0.00 | 0.00 | 0.00 | 100 | 1007.2 |
| 20260903034529 | 57 | 192 | 0.0 | 0.0 | 0.00 | 0.00 | 0.00 | 100 | 1007.0 |
| 20260903034029 | 58 | 192 | 0.0 | 0.0 | 0.00 | 0.00 | 0.00 | 100 | 1006.8 |
| 20260903033530 | 58 | 192 | 0.0 | 0.0 | 0.00 | 0.00 | 0.00 | 100 | 1006.8 |
| 20260903032530 | 58 | 192 | 0.0 | 0.0 | 0.00 | 0.00 | 0.00 | 100 | 1006.7 |
| 20260903031531 | 58 | 192 | 0.0 | 0.0 | 0.00 | 0.00 | 0.00 | 100 | 1006.6 |
| 20260903031030 | 59 | 192 | 0.0 | 0.0 | 0.00 | 0.00 | 0.00 | 100 | 1006.6 |
| 20260903030530 | 59 | 192 | 0.0 | 0.0 | 0.00 | 0.00 | 0.00 | 100 | 1006.5 |
| 20260903030029 | 59 | 192 | 0.0 | 0.0 | 0.00 | 0.00 | 0.00 | 100 | 1006.4 |
| 20260903024532 | 60 | 184 | 0.0 | 0.0 | 0.00 | 0.00 | 0.00 | 100 | 1006.3 |
| 20260903023531 | 60 | 188 | 0.0 | 0.0 | 0.00 | 0.00 | 0.00 | 100 | 1006.2 |
| 20260903023030 | 61 | 188 | 0.0 | 0.0 | 0.00 | 0.00 | 0.00 | 100 | 1006.2 |
| 20260903022530 | 61 | 188 | 0.0 | 0.0 | 0.00 | 0.00 | 0.00 | 100 | 1006.1 |
| 20260903022030 | 61 | 188 | 0.0 | 0.0 | 0.00 | 0.00 | 0.00 | 100 | 1006.0 |
| 20260903021529 | 61 | 188 | 0.0 | 0.0 | 0.00 | 0.00 | 0.00 | 100 | 1006.0 |
| 20260903021030 | 61 | 186 | 0.0 | 0.0 | 0.00 | 0.00 | 0.00 | 100 | 1006.1 |
| 20260903020029 | 61 | 187 | 0.0 | 0.0 | 0.00 | 0.00 | 0.00 | 100 | 1006.0 |
| 20260903015529 | 62 | 172 | 0.0 | 0.0 | 0.00 | 0.00 | 0.00 | 100 | 1006.0 |
| 20260903015029 | 62 | 188 | 0.0 | 0.0 | 0.00 | 0.00 | 0.00 | 100 | 1005.9 |
| 20260903014530 | 62 | 182 | 0.0 | 0.0 | 0.00 | 0.00 | 0.00 | 100 | 1005.9 |
| 20260903014031 | 62 | 181 | 0.0 | 0.0 | 0.00 | 0.00 | 0.00 | 100 | 1005.8 |
| 20260903013530 | 62 | 180 | 0.0 | 0.0 | 0.00 | 0.00 | 0.00 | 100 | 1005.7 |
| 20260903013029 | 62 | 188 | 0.0 | 0.0 | 0.00 | 0.00 | 0.00 | 100 | 1005.7 |
| 20260903012531 | 62 | 195 | 0.0 | 0.0 | 0.00 | 0.00 | 0.00 | 100 | 1005.7 |
| 20260903012030 | 62 | 190 | 0.0 | 0.0 | 0.00 | 0.00 | 0.00 | 100 | 1005.7 |
| 20260903011031 | 62 | 185 | 3.0 | 9.0 | 0.00 | 0.00 | 0.00 | 100 | 1005.6 |
| 20260903010530 | 62 | 190 | 4.0 | 9.0 | 0.00 | 0.00 | 0.00 | 100 | 1005.6 |
| 20260903010029 | 62 | 187 | 4.0 | 9.0 | 0.00 | 0.00 | 0.00 | 100 | 1005.7 |
| 20260903005530 | 62 | 187 | 3.0 | 7.0 | 0.00 | 0.00 | 0.00 | 100 | 1005.6 |
| 20260903004529 | 62 | 198 | 3.0 | 8.0 | 0.00 | 0.00 | 0.00 | 100 | 1005.4 |
| 20260903004030 | 62 | 184 | 4.0 | 9.0 | 0.00 | 0.00 | 0.00 | 100 | 1005.4 |
| 20260903003528 | 62 | 187 | 5.0 | 9.0 | 0.00 | 0.00 | 0.00 | 100 | 1005.3 |
| 20260903003028 | 62 | 186 | 4.0 | 10.0 | 0.00 | 0.00 | 0.00 | 100 | 1005.3 |
| 20260903002527 | 62 | 192 | 2.0 | 10.0 | 0.00 | 0.00 | 0.00 | 100 | 1005.4 |
| 20260903002027 | 62 | 190 | 0.0 | 9.0 | 0.00 | 0.00 | 0.00 | 100 | 1005.4 |
| 20260903001020 | 62 | 192 | 3.0 | 10.0 | 0.00 | 0.00 | 0.00 | 100 | 1005.3 |
| 20260902235516 | 62 | 175 | 2.0 | 9.0 | 0.00 | 0.00 | 0.00 | 100 | 1005.3 |
| 20260902235017 | 62 | 180 | 2.0 | 9.0 | 0.00 | 0.00 | 0.00 | 100 | 1005.3 |
| 20260902234517 | 62 | 190 | 1.0 | 9.0 | 0.00 | 0.00 | 0.00 | 100 | 1005.2 |
| 20260902233512 | 61 | 180 | 0.0 | 0.0 | 0.00 | 0.00 | 0.00 | 100 | 1005.1 |
| 20260902233011 | 60 | 181 | 0.0 | 0.0 | 0.00 | 0.00 | 0.00 | 100 | 1005.1 |
| 20260902232513 | 60 | 181 | 0.0 | 0.0 | 0.00 | 0.00 | 0.00 | 100 | 1005.3 |
| 20260902232011 | 60 | 181 | 0.0 | 0.0 | 0.00 | 0.00 | 0.00 | 100 | 1005.3 |
| 20260902231513 | 60 | 181 | 0.0 | 5.0 | 0.00 | 0.00 | 0.00 | 100 | 1005.1 |
| 20260902230512 | 60 | 180 | 2.0 | 8.0 | 0.00 | 0.00 | 0.00 | 100 | 1005.1 |
| 20260902230012 | 60 | 182 | 2.0 | 8.0 | 0.00 | 0.00 | 0.00 | 100 | 1005.0 |
| 20260902225511 | 59 | 180 | 3.0 | 9.0 | 0.00 | 0.00 | 0.00 | 100 | 1005.0 |
| 20260902225011 | 59 | 180 | 3.0 | 9.0 | 0.00 | 0.00 | 0.00 | 100 | 1005.0 |
| 20260902224012 | 59 | 188 | 2.0 | 8.0 | 0.00 | 0.00 | 0.00 | 100 | 1004.9 |
| 20260902223513 | 59 | 184 | 3.0 | 7.0 | 0.00 | 0.00 | 0.00 | 100 | 1004.9 |
| 20260902223009 | 59 | 187 | 3.0 | 8.0 | 0.00 | 0.00 | 0.00 | 100 | 1004.9 |
| 20260902222509 | 59 | 182 | 4.0 | 9.0 | 0.00 | 0.00 | 0.00 | 100 | 1004.8 |
| 20260902221510 | 59 | 182 | 5.0 | 15.0 | 0.00 | 0.00 | 0.00 | 100 | 1004.6 |
| 20260902221010 | 59 | 188 | 4.0 | 15.0 | 0.00 | 0.00 | 0.00 | 100 | 1004.6 |
| 20260902220020 | 59 | 187 | 4.0 | 12.0 | 0.00 | 0.00 | 0.00 | 100 | 1004.4 |
| 20260902215505 | 59 | 170 | 2.0 | 13.0 | 0.00 | 0.00 | 0.00 | 100 | 1004.4 |
| 20260902214004 | 59 | 192 | 3.0 | 13.0 | 0.00 | 0.00 | 0.00 | 100 | 1004.4 |